#timestamp,LO_Frequency,Hit 
1498309215.7,286046987.5,N
1498309235.5,286046987.4,N
1498309255.4,286046988.1,N
1498309275.2,286046988.3,N
1498309295.0,286046986.3,N
1498309295.9,286046986.3,N
1498309315.7,286046987.9,N
1498309335.6,286046988.4,N
1498309355.4,286046985.3,N
1498309375.2,286046985.5,N
1498309395.1,286046986.2,N
1498309396.0,286046986.2,N
1498309415.8,286046986.0,N
1498309435.6,286046986.3,N
1498309455.5,286046984.0,Y
1498309475.3,286046994.8,N
1498309495.1,286046992.5,N
1498309515.9,286046991.9,N
1498309535.7,286046992.9,N
1498309555.5,286046993.2,N
1498309575.4,286046993.2,N
1498309595.2,286046992.8,N
1498309615.0,286046990.8,N
1498309615.9,286046990.8,N
1498309635.8,286046991.3,N
1498309655.6,286046990.9,N
1498309675.4,286046991.3,N
1498309695.2,286046991.3,N
1498309715.1,286046991.5,N
1498309716.0,286046991.5,N
1498309735.8,286046988.5,N
1498309755.6,286046990.4,N
1498309775.5,286046989.0,N
1498309795.3,286046991.4,N
1498309815.1,286046991.6,N
1498309835.9,286046991.6,N
1498309855.7,286046989.2,N
1498309875.5,286046989.6,N
1498309895.4,286046987.3,N
1498309915.2,286046987.3,N
1498309935.0,286046987.3,N
1498309935.9,286046987.3,N
1498309955.8,286046987.0,N
1498309975.6,286046987.2,N
1498309995.4,286046986.9,N
1498310015.2,286046990.0,N
1498310035.1,286046987.1,N
1498310036.0,286046987.1,N
1498310055.8,286046988.4,N
1498310075.6,286046988.1,N
1498310095.5,286046987.5,N
1498310115.3,286046987.6,N
1498310135.1,286046987.0,N
1498310155.9,286046988.1,N
1498310175.7,286046986.1,N
1498310195.5,286046984.0,Y
1498310215.4,286046994.0,N
1498310235.2,286046994.3,N
1498310255.0,286046994.4,N
1498310255.9,286046994.4,N
1498310275.8,286046991.8,N
1498310295.6,286046994.6,N
1498310315.4,286046994.3,N
1498310335.3,286046994.5,N
1498310355.1,286046991.9,N
1498310356.0,286046991.9,N
1498310375.8,286046991.7,N
1498310395.7,286046992.3,N
1498310415.5,286046990.1,N
1498310435.3,286046990.2,N
1498310455.1,286046988.9,N
1498310475.9,286046991.1,N
1498310495.7,286046988.7,N
1498310515.5,286046989.0,N
1498310535.4,286046988.8,N
1498310555.2,286046988.6,N
1498310575.0,286046991.1,N
1498310575.9,286046991.1,N
1498310595.8,286046988.9,N
1498310615.6,286046988.6,N
1498310635.4,286046988.8,N
1498310655.3,286046988.5,N
1498310675.1,286046988.8,N
1498310676.0,286046988.8,N
1498310695.8,286046989.4,N
1498310715.7,286046990.0,N
1498310735.5,286046989.9,N
1498310755.3,286046990.0,N
1498310775.1,286046987.2,N
1498310795.9,286046987.4,N
1498310815.7,286046987.8,N
1498310835.5,286046985.7,N
1498310855.4,286046985.8,N
1498310875.2,286046985.8,N
1498310895.0,286046985.8,N
1498310895.9,286046985.8,N
1498310915.8,286046986.6,N
1498310935.6,286046986.2,N
1498310955.4,286046986.1,N
1498310975.3,286046985.9,N
1498310995.1,286046985.7,N
1498310996.0,286046985.7,N
1498311015.8,286046986.1,N
1498311035.7,286046986.4,N
1498311055.5,286046986.1,N
1498311075.3,286046986.6,N
1498311095.1,286046986.5,N
1498311115.9,286046986.8,N
1498311135.7,286046984.1,Y
1498311155.5,286046993.6,N
1498311175.4,286046994.6,N
1498311195.2,286046992.1,N
1498311215.0,286046992.2,N
1498311215.9,286046992.2,N
1498311235.8,286046992.6,N
1498311255.6,286046992.8,N
1498311275.4,286046992.9,N
1498311295.3,286046991.9,N
1498311315.1,286046992.3,N
1498311316.0,286046992.3,N
1498311335.8,286046992.6,N
1498311355.7,286046992.9,N
1498311375.5,286046992.4,N
1498311395.3,286046992.4,N
1498311415.1,286046992.4,N
1498311435.9,286046993.0,N
1498311455.7,286046991.2,N
1498311475.5,286046988.5,N
1498311495.4,286046991.6,N
1498311515.2,286046991.1,N
1498311535.0,286046989.4,N
1498311535.9,286046989.4,N
1498311555.8,286046989.7,N
1498311575.6,286046991.3,N
1498311595.4,286046990.5,N
1498311615.3,286046990.2,N
1498311635.1,286046991.1,N
1498311636.0,286046991.1,N
1498311655.8,286046991.3,N
1498311675.7,286046988.5,N
1498311695.5,286046991.1,N
1498311715.3,286046989.2,N
1498311735.2,286046989.2,N
1498311755.9,286046988.8,N
1498311775.7,286046989.9,N
1498311795.5,286046989.6,N
1498311815.4,286046986.9,N
1498311835.2,286046988.1,N
1498311855.0,286046990.0,N
1498311855.9,286046990.0,N
1498311875.8,286046990.0,N
1498311895.6,286046987.0,N
1498311915.4,286046988.1,N
1498311935.3,286046987.7,N
1498311955.1,286046987.9,N
1498311956.0,286046987.9,N
1498311975.8,286046987.9,N
1498311995.7,286046987.7,N
1498312015.5,286046987.2,N
1498312035.3,286046987.2,N
1498312055.2,286046989.6,N
1498312075.9,286046987.0,Y
1498312095.7,286046996.8,N
1498312115.6,286046997.5,N
1498312135.4,286046997.6,N
1498312155.2,286046997.8,N
1498312175.0,286046997.1,N
1498312176.0,286046997.1,N
1498312195.8,286046996.5,N
1498312215.6,286046997.3,N
1498312235.4,286046997.5,N
1498312255.3,286046997.8,N
1498312275.1,286046995.3,N
1498312295.8,286046997.4,N
1498312315.7,286046995.3,N
1498312335.5,286046995.3,N
1498312355.3,286046997.8,N
1498312375.2,286046995.7,N
1498312395.9,286046996.4,N
1498312415.7,286046994.1,N
1498312435.5,286046994.2,N
1498312455.4,286046993.9,N
1498312475.2,286046996.3,N
1498312495.0,286046995.8,N
1498312495.9,286046995.8,N
1498312515.8,286046996.1,N
1498312535.6,286046994.2,N
1498312555.4,286046996.4,N
1498312575.3,286046996.2,N
1498312595.1,286046994.5,N
1498312596.0,286046994.5,N
1498312615.8,286046994.5,N
1498312635.7,286046994.0,N
1498312655.5,286046996.4,N
1498312675.3,286046995.2,N
1498312695.2,286046998.0,N
1498312715.9,286046997.4,N
1498312735.7,286046995.7,N
1498312755.5,286046996.2,N
1498312775.4,286046996.3,N
1498312795.2,286046994.2,N
